Weather History for North Myrtle Beach, SC

Change the Weather History Date:

Friday, May 10, 2013

  Actual Average Record
Temperature  
Mean Temperature 69 °F 68 °F  
Max Temperature 77 °F 78 °F 87 °F (2003)
Min Temperature 61 °F 59 °F 45 °F (1954)
Degree Days  
Heating Degree Days 0 1  
Month to date heating degree days 11 15  
Since 1 July heating degree days 2401 2438  
Cooling Degree Days 4 4  
Month to date cooling degree days 13 35  
Year to date cooling degree days 47 77  
Growing Degree Days 20 (Base 50)    
Moisture  
Dew Point 63 °F    
Average Humidity 79    
Maximum Humidity 93    
Minimum Humidity 64    
Precipitation  
Precipitation 0.00 in 0.10 in 0.81 in (2011)
Month to date precipitation 0.86 1.02  
Year to date precipitation 15.92 15.01  
Sea Level Pressure  
Sea Level Pressure 30.07 in    
Wind  
Wind Speed 9 mph (SSW)    
Max Wind Speed 21 mph    
Max Gust Speed 29 mph    
Visibility 10 miles    
Events      
T = Trace of Precipitation, MM = Missing Value Source: NWS Daily Summary

Daily Weather History Graph

Daily Weather History Graph

Search for Another Location

Airport:

Trip Planner

Search our weather history database for the weather conditions in past years. The results will help you decide how hot, cold, wet, or windy it might be!

Date:

Astronomy

May. 10, 2013 Rise Set
Actual Time 6:17 AM EDT 8:05 PM EDT
Civil Twilight 5:50 AM EDT 8:32 PM EDT
Nautical Twilight 5:17 AM EDT 9:05 PM EDT
Astronomical Twilight 4:42 AM EDT 9:40 PM EDT
Moon 6:40 AM EDT (5/10) 8:52 PM EDT (5/10)
Length of Visible Light 14h 42m
Length of Day
13h 47m
New Moon, 0% of the Moon is Illuminated
May 10
New Moon
May 18
First Quarter
May 25
Full
May 31
Last Quarter
Jun 8
New

Hourly Weather History & Observations

Time (EDT) Temp. Dew Point Humidity Pressure Visibility Wind Dir Wind Speed Gust Speed Precip Events Conditions
1:53 AM 64.9 °F 60.1 °F 84% 30.09 in 10.0 mi Calm Calm - N/A   Clear
2:53 AM 64.0 °F 60.1 °F 87% 30.08 in 10.0 mi SW 3.5 mph - N/A   Clear
4:53 AM 62.1 °F 59.0 °F 90% 30.08 in 10.0 mi Calm Calm - N/A   Clear
5:53 AM 64.0 °F 57.9 °F 80% 30.07 in 10.0 mi WSW 3.5 mph - N/A   Clear
6:53 AM 64.0 °F 59.0 °F 84% 30.09 in 10.0 mi Calm Calm - N/A   Clear
8:53 AM 72.0 °F 60.1 °F 66% 30.09 in 10.0 mi West 4.6 mph - N/A   Clear
9:53 AM 73.0 °F 63.0 °F 71% 30.10 in 10.0 mi SSW 4.6 mph - N/A   Clear
10:53 AM 73.9 °F 63.0 °F 68% 30.10 in 10.0 mi South 5.8 mph - N/A   Clear
11:53 AM 75.0 °F 64.0 °F 69% 30.09 in 10.0 mi South 8.1 mph - N/A   Clear
12:53 PM 75.0 °F 64.9 °F 71% 30.08 in 10.0 mi South 8.1 mph - N/A   Clear
1:53 PM 75.0 °F 66.9 °F 76% 30.09 in 10.0 mi SSW 12.7 mph - N/A   Clear
2:53 PM 75.0 °F 64.9 °F 71% 30.08 in 10.0 mi South 17.3 mph - N/A   Clear
3:53 PM 75.9 °F 64.9 °F 69% 30.06 in 10.0 mi SSW 19.6 mph 25.3 mph N/A   Clear
4:53 PM 77.0 °F 64.0 °F 64% 30.05 in 10.0 mi SSW 15.0 mph 23.0 mph N/A   Partly Cloudy
5:53 PM 73.9 °F 64.9 °F 73% 30.03 in 10.0 mi SSW 13.8 mph - N/A   Scattered Clouds
6:53 PM 73.0 °F 64.0 °F 73% 30.03 in 10.0 mi SSW 13.8 mph - N/A   Partly Cloudy
7:53 PM 71.1 °F 64.0 °F 78% 30.03 in 10.0 mi SSW 13.8 mph - N/A   Clear
8:53 PM 71.1 °F 64.9 °F 81% 30.03 in 10.0 mi SSW 13.8 mph - N/A   Partly Cloudy
9:53 PM 71.1 °F 64.0 °F 78% 30.04 in 10.0 mi SSW 11.5 mph - N/A   Clear
10:53 PM 70.0 °F 64.0 °F 81% 30.04 in 10.0 mi SSW 12.7 mph - N/A   Clear
11:53 PM 70.0 °F 64.0 °F 81% 30.04 in 10.0 mi SSW 10.4 mph - N/A   Clear